Location: Banff
(51.1667°N, 115.5667°W)
Time: 06:21:27
(UTC+00:00)

S-56A Canister/Altair - Pass Details

Date: 30 November 2020
Orbit: 633 x 2499 km, 38.9° (Epoch: 21 January)

Event Time Altitude Azimuth Distance (km) Brightness Sun altitude
Rises 01:01:55 0° 198° (SSW) 5,902 12.6 -12.4°
Reaches altitude 10° 01:07:56 10° 181° (S) 4,611 11.7 -13.3°
Maximum altitude 01:14:41 17° 148° (SSE) 3,658 10.8 -14.3°
Drops below altitude 10° 01:20:19 10° 113° (ESE) 3,754 10.6 -15.1°
Enters shadow 01:20:39 - 111° (ESE) 3,790 10.6 -15.2°
Sets 01:24:24 0° 94° (E) 4,390 - -15.7°
